Uncategorized

2022 Ratings: Jackson

Fielded many questions today on the speed of this course. Let me just say it was fast… wait, the runners were freakin’ fast.

Boys Adjustment: +13
Girls Adjustment: +18

JACKSON JETS

Nathan Kippnick, Manchester: The most exciting race of the day came on the final one, Nathan patiently moving up and giving Rogan Melling all he could handle. Rogan eventually pulled away, but pushed Nathan to a personal best and a enormous season best.

Natalie Kessler, Ann Arbor Skyline: Last fall and the beginning of this season, Natalie ran many mid-19 races. All, a solid step up from her freshman and sophomore years, but no real breakthroughs. That came today, and not just slipping under 19:00, smashing that mark with an 18:41.

GradeNameTimeTeamRating
12Sean Byrnes15:33.3Plymouth204.6
12Nicolas Fry15:39.6Ann Arbor Skyline202.5
12Jared Platt15:41.0White Lake Lakeland202.0
11Brandon Anderson15:41.3Dexter201.9
12Samuel Jackson15:44.7Saline200.8
11Aiden Moore15:45.0Battle Creek Lakeview200.7
11Sebastian Ramirez15:47.0Royal Oak200.0
11Vincent Guaresimo15:47.6Romeo199.8
11Vishvaa Ravishankar15:47.9Troy199.7
11Truman Johnson15:54.3Saline197.6
12Christopher Van Lent15:56.7Ann Arbor Skyline196.8
12Micah Bauer15:57.3Traverse City Central196.6
12Joe Muha15:58.7Traverse City Central196.1
11Connor Clor15:59.1Romeo196.0
11Luke Suliman16:01.0Ann Arbor Skyline195.3
11Pierce Grzymkowski16:03.2White Lake Lakeland194.6
11Louis D’Souza16:03.4Troy194.5
12Owen Lawrence16:04.3East Kentwood194.2
11Mason Jett16:07.0Ann Arbor Skyline193.3
12Elliot Carey16:07.1Salem193.3
10Isaac Tanis16:19.0East Kentwood189.3
12Eddie King16:20.4Farmington188.9
10Evan Nickoles16:20.5East Kentwood188.8
11Vincent Peterson Sand16:20.7Ann Arbor Pioneer188.8
12Rogan Melling16:21.7Hanover-Horton188.4
11Eric Overdier16:22.2Ann Arbor Pioneer188.3
11Zack Truszkowski16:22.4Traverse City Central188.2
12Nathan Kippnick16:23.6Manchester187.8
12Caleb Bost16:25.1Battle Creek Lakeview187.3
12Gavin Steele16:26.8Farmington186.7
12Cody Aldridge16:29.1Sault Ste. Marie186.0
12Benjamin Smith16:29.3Hartland185.9
12Owen Ackerman16:30.7Dexter185.4
12Alex Bobak16:33.8Plymouth184.4
12Derrian Kumfer16:35.8Romeo183.7
11Anirudh Krishnan16:36.8Plymouth183.4
11Aaron Sterken16:37.4Ann Arbor Pioneer183.2
12Jason Whitton16:39.5Saline182.5
10Jack Chadwick16:40.8Plymouth182.1
12Roman Cortina16:41.0Ann Arbor Pioneer182.0
12Austin Brown16:41.9Hanover-Horton181.7
12Jack Leyden16:42.6Salem181.5
12Andrew Grier16:43.5Ann Arbor Pioneer181.2
9Gabe Litzner16:44.4Sault Ste. Marie180.9
11Alex Durocher16:44.7Traverse City Central180.8
12Sam Roberts16:44.8Dearborn180.7
12Jackson Trombly16:45.0Plymouth180.7
11Noah DeLand16:45.4Howell180.5
12Aidan Oakley16:46.5Dearborn180.2
12Cameron Pierce16:47.7Leslie179.8
12Thomas Kerber16:47.9Ann Arbor Pioneer179.7
12Iggy Grynaviski16:49.2Farmington179.3
11Bryce Goodsell16:49.6Romeo179.1
11PJ Kim16:50.9Salem178.7
10Akshat Arora16:51.0Troy178.7
11Thomas Holm16:51.8Hillsdale Academy178.4
10Kian Schneeweis16:52.3Troy178.2
11Sam Gibson16:52.5Dexter178.2
12Caiden Kippnick16:53.5Manchester177.8
11Cooper Singleton16:53.5Parma Western177.8
11Sunishthh Singh16:55.0Ann Arbor Gabriel Richard177.3
10Caleb Snyder16:55.3Dexter177.2
12Andrew McNally16:55.8Saline177.1
10Mitchell Hiatt16:55.9Onsted177.0
12Eli Hullinger16:56.8Romeo176.7
12Tyler Gaylord16:56.9Plymouth176.7
9Dylan Duguay16:57.2Kalamazoo Loy Norrix176.6
12Earl Schramm16:57.4Monroe Milers176.5
11Joey Seale16:57.5Salem176.5
12Jett Reimers16:59.6Traverse City Central175.8
9Jackson Lam17:00.3Kalamazoo Loy Norrix175.6
11Noah Tiernan17:01.4White Lake Lakeland175.2
9Gavin Johns17:01.7White Lake Lakeland175.1
12Zach Piercy17:01.9Battle Creek Lakeview175.0
12Elijah Routson17:04.4Saline174.2
12Kishore Senthil Kumar17:05.4Troy173.9
12Teddy Shi17:06.2Troy173.6
11Kaiden Morey17:06.4Traverse City Central173.5
10Ben Mussen17:07.0Plymouth173.3
10Owen Gould17:08.1Romeo173.0
12Antonio Konopka17:08.8Salem172.7
12Chase Klapthor17:09.2Ann Arbor Pioneer172.6
11Michael Allen17:09.7East Jackson172.4
12Alex Hammond17:10.1Royal Oak172.3
12Collin Cook17:11.8Stockbridge171.7
11Gannon Shore17:12.1Jackson Lumen Christi171.6
11Ryan Ward17:13.2White Lake Lakeland171.3
11Nolan Grant17:13.4Hillsdale171.2
10Landon Boulis17:13.6Hanover-Horton171.1
12Sam Kromberg17:13.6Hartland171.1
12Landon Wade17:14.0East Kentwood171.0
11Darren Tenka17:14.1Salem171.0
10Jacob Van Houten17:15.1Troy170.6
12Nathan Milliman17:15.4Ann Arbor Pioneer170.5
12Aidan Hale17:15.6Ann Arbor Skyline170.5
12Oskar Wiedenhoeft17:16.1Kalamazoo Loy Norrix170.3
11Braxton Sipes17:16.3Royal Oak170.2
10Drake Wallace17:16.7Howell170.1
12Alex Hoffman17:18.3Dexter169.6
12Shane Pitcher17:20.5Saline168.8
11Liam Bredeweg17:21.4Ann Arbor Pioneer168.5
10Jonah Bills17:22.0Battle Creek Lakeview168.3
12Brody Amthor17:22.7Onsted168.1
12Ethan Duhl17:22.9Dearborn168.0
11Quinten Henderson17:23.1Traverse City Central168.0
9Beckett Crooks17:23.8Ann Arbor Pioneer167.7
11Carson Cook17:24.1Hartland167.6
11Evan Shepherd17:25.2Hanover-Horton167.3
11Nick Runnion17:25.5Salem167.2
10Aidan Ortiz17:25.8Temperance Bedford167.1
9Luke Allen17:27.6Romeo166.5
10Nolan Till17:28.6Royal Oak166.1
9Parker Miller17:29.4Battle Creek Lakeview165.9
9Luke Dudash17:31.6Dexter165.1
12Anthony Pucillo17:32.3Ann Arbor Gabriel Richard164.9
9Pierce Scheffler17:32.6Woodhaven-Brownstown164.8
10Lucas Wood17:33.1Howell164.6
11Gabe Bock17:33.6Temperance Bedford164.5
10Matthew Verellen17:34.2White Lake Lakeland164.3
9Edison Lopeman17:35.5Parma Western163.8
9Zach Hassenzahl17:36.9Hanover-Horton163.4
11Trevor Bratt17:38.7Hartland162.8
11Logan Jeannette17:39.2White Lake Lakeland162.6
9Marek Borgstahl17:39.9Ann Arbor Gabriel Richard162.4
12Matt Dombrowski17:40.1Ann Arbor Pioneer162.3
12Ryan Nelson17:41.1Farmington162.0
11Kyler Pequet17:41.1Napoleon162.0
12Connor Ford17:41.4Howell161.9
10Connor Wallace17:41.7Howell161.8
10Jordan Bunce17:41.8Temperance Bedford161.7
10Nicholas Balla17:41.9Temperance Bedford161.7
10Nathan Paquette17:42.3Hartland161.6
10Nolan Park17:42.4Sturgis161.5
11Danny Ewing17:43.9Kalamazoo Loy Norrix161.0
11Lucas Goodman17:45.3Clinton160.6
9Quinn Davis17:46.4Ann Arbor Pioneer160.2
12Zach Kubish17:47.3Parma Western159.9
11Josh Hennessy17:52.3Battle Creek Lakeview158.2
9Grayson Rorick17:52.5Hillsdale Academy158.2
9Thomas DeJesus17:52.7Ann Arbor Pioneer158.1
9Braden Shiposh17:53.5Hartland157.8
9Dane Hieronimus17:54.4Temperance Bedford157.5
11Michael Davies17:54.8Birmingham Seaholm157.4
12Austin Lee17:56.1Battle Creek Lakeview157.0
10Jose Domecq17:56.6Leslie156.8
10Alex Forman17:58.4East Kentwood156.2
12Caleb Diener17:58.5Hillsdale Academy156.2
12Rylan Teddy18:00.5Dexter155.5
10Miles Brown18:01.6Hillsdale155.1
12Max Zgoda18:02.0Royal Oak155.0
12Merrick Guthrie18:02.3Royal Oak154.9
12Soren Nielsen18:03.2Ann Arbor Skyline154.6
9Grant Johnson18:03.2Manchester154.6
11Ethan Wright18:04.3Stockbridge154.2
12Joe Kalakailo18:04.4Farmington154.2
9Bruno Cifaldi18:05.7Ann Arbor Skyline153.8
10Reece Poole18:07.4Hillsdale Academy153.2
12Zack Gillies18:08.3Clinton152.9
10Benjamin Peura18:08.4Farmington152.9
11Liam Hoover18:08.7Howell152.8
12Logan Haskins18:09.0Sault Ste. Marie152.7
11David Fowler18:09.4Jonesville152.5
12Ethan Lubahn18:09.8Leslie152.4
11Owen Brown18:10.7Hanover-Horton152.1
12James Benz18:10.8Ann Arbor Gabriel Richard152.1
9Alex Vazquez18:11.3Woodhaven-Brownstown151.9
10James Bayes18:11.5Onsted151.8
12Brandon Rohrer18:12.2Hartland151.6
12Samuel Allen18:12.2Kalamazoo Loy Norrix151.6
10Andres Jaime18:12.6Royal Oak151.5
9Wyatt Vowell18:15.1Brooklyn Columbia Central150.6
10Gabe Manchester18:16.3Clinton150.2
12Nick Schuette18:16.6Hanover-Horton150.1
11Luke Bounerba18:19.6Ann Arbor Gabriel Richard149.1
12Brendon Tribu18:20.6Kalamazoo Loy Norrix148.8
10Zachery Childress18:20.8Jonesville148.7
12Andrew England18:23.5Jackson147.8
9Gage Bihn18:23.7Temperance Bedford147.8
10Carter Hausman18:25.2Kalamazoo Loy Norrix147.3
11Aiden Monroe18:27.2Hillsdale146.6
11Andrew Montierth18:27.3Dearborn146.6
11Mytchal Morrison18:29.2Jonesville145.9
12Nathan Gothro18:29.9Dearborn145.7
10Emmet Thompson18:30.8Howell145.4
9Samuel Hovermale18:31.2East Kentwood145.3
12Micah Bolton18:31.7Stockbridge145.1
11David Martin18:32.0Parma Western145.0
11Patrick Donoghue18:33.3Ann Arbor Pioneer144.6
11Javin Mericle18:33.5East Jackson144.5
10Jacob Yeager18:35.1Temperance Bedford144.0
9Alex Holda18:36.9Grass Lake143.4
11Gianpaolo Patti18:37.7Ann Arbor Gabriel Richard143.1
12Rece Linn18:39.2Farmington142.6
12Brendan LaFave18:39.5Ann Arbor Gabriel Richard142.5
11Gavin VanKampen18:39.7Jonesville142.4
12Carter Peet18:41.4Dearborn141.9
12Ethan Kent18:41.7Sturgis141.8
9Grason Weber18:44.1Leslie141.0
10Alex Richards18:44.6Hillsdale Academy140.8
9Elijah Bernstein18:45.3East Kentwood140.6
9Nicholas Fowler18:47.3Jonesville139.9
10Titan Parker18:47.8Parma Western139.7
11Zachary Green18:49.4Sturgis139.2
9William Schook18:49.6Dearborn139.1
11Elisha Correll18:50.5Jackson138.8
11Evan Smith18:52.1Woodhaven-Brownstown138.3
9Lucas Kyser18:52.5Jonesville138.2
10Eli Hills18:53.3Sault Ste. Marie137.9
10Jeremiah Lawson18:54.1Woodhaven-Brownstown137.6
11Marius Zwick18:58.1Hillsdale136.3
10Leland Weiser18:58.6Ann Arbor Skyline136.1
10Jack Gorton19:00.0Brooklyn Columbia Central135.7
11Hunter Anderson19:00.8Manchester135.4
12Collin Doederlein19:02.8Parma Western134.7
12Erik Dexter19:04.1Leslie134.3
10Evan Huyck19:05.1Sault Ste. Marie134.0
10Nick Gardner19:06.3Vandercook Lake133.6
11Jacob Norman19:08.7Jonesville132.8
9Isaac Fullerton19:10.5Parma Western132.2
12Owen Khon19:10.8Jackson Northwest132.1
9Zeke Lafferty19:11.7Ann Arbor Skyline131.8
11Ike Lindley19:11.7Hillsdale Academy131.8
12Nathan Padbury19:13.4Jackson Lumen Christi131.2
12Caden Arntz19:15.2Clinton130.6
9Henry Lindley19:15.3Hillsdale Academy130.6
10Brent Maurer19:15.5Sault Ste. Marie130.5
10Ben Iobe19:16.7Mendon130.1
11Dylan Shoresh19:17.1Birmingham Seaholm130.0
9Emmet Van Cleave19:19.0Grass Lake129.3
9Solomon Schramm19:20.2Monroe Milers128.9
9Jamison Swope19:20.4Napoleon128.9
11Torin Friedrichs19:24.6Birmingham Seaholm127.5
9Carson Dubose19:25.8Leslie127.1
12Aiden Thorne19:32.0Napoleon125.0
11Will Dykstra19:33.1Manchester124.6
9Gibson Shore19:39.7Jackson Lumen Christi122.4
9Connor Sherwood19:43.0Grass Lake121.3
10Benjamin Eros19:45.1Grass Lake120.6
9Noah Ivey19:46.0Monroe Milers120.3
10Dominic Germano19:48.7Woodhaven-Brownstown119.4
11Gavin Zuver19:51.3Brooklyn Columbia Central118.6
11Colton Raffensberger19:51.7East Jackson118.4
11Ethan Grulke19:54.1Onsted117.6
10Jordan Watkins19:55.4Onsted117.2
10Parker Razelun19:57.9Ann Arbor Skyline116.4
9Benjamin Morales19:59.8Sturgis115.7
10Eric Ramsey20:00.4Clinton115.5
11Carter Michling20:03.4Woodhaven-Brownstown114.5
11Logan Hile20:03.7Leslie114.4
9Gustaf Finn20:03.8Ann Arbor Skyline114.4
12Jason Sax20:04.0Woodhaven-Brownstown114.3
10Areg Mailian20:04.2Birmingham Seaholm114.3
9Connor Joy20:05.5Birmingham Seaholm113.8
10Peter O’Brien20:05.6Birmingham Seaholm113.8
9Lukas Curylo20:07.3Napoleon113.2
9Andrew Norman20:08.4Napoleon112.9
11Haden McLain20:09.6Napoleon112.5
11Justin Celmer20:10.1Clinton112.3
10Jack Robichaud20:10.4Ann Arbor Skyline112.2
10Finn Coffman20:16.0Stockbridge110.3
9Nate Ostrosky20:17.7Brooklyn Columbia Central109.8
10Hudson Cooper20:19.0Jackson Northwest109.3
10Owen Lambarth20:25.5Brooklyn Columbia Central107.2
9Trenton Monahan20:29.7Jackson Northwest105.8
9Gage Pedue20:32.8Sturgis104.7
12Stephen Hertzfeld20:34.8East Jackson104.1
10Wyatt Boteler20:34.8Grass Lake104.1
10Darren Schalhamer20:38.9Jackson Lumen Christi102.7
11Oscar Connolly20:40.4Birmingham Seaholm102.2
10Julius Farrell20:41.0East Jackson102.0
10Braden Lige20:43.4Hillsdale101.2
9Bryson White20:51.4Jackson98.5
9Matthew Moilanen20:57.0Jackson96.7
11Aaron Hoaglin20:58.9Jackson Northwest96.0
11William Kennedy21:01.7East Jackson95.1
10Mckal Berry21:07.8Sault Ste. Marie93.1
11Ruben Spencer21:13.0Grass Lake91.3
10Nathan More21:15.7Jonesville90.4
9Ryder Cornett21:16.6Jonesville90.1
10Ben Nichols21:19.5Jackson89.2
9Jason Gonerka21:19.9Brooklyn Columbia Central89.0
11Reed Patrick21:20.4Clinton88.9
11Brady Cole21:20.5Stockbridge88.8
10Ben Warriner21:21.0Jackson Lumen Christi88.7
10Colin Moran21:22.1Jackson Lumen Christi88.3
9Dylan Hile21:24.9Leslie87.4
9Dylan Mineweaser21:33.9Jackson84.4
10Owen Dobrowitsky21:37.1Birmingham Seaholm83.3
9Ben Jacobs21:49.4Clinton79.2
11Jack Coluccy21:50.4Manchester78.9
11Sam Hallenbeck21:55.3Onsted77.2
12Jacob Beer22:03.7Napoleon74.4
9Jacob Gallagher22:10.8Leslie72.1
11Gavin Zegarlowicz22:12.5East Jackson71.5
12Dylan Gloar22:26.2Jackson Northwest66.9
11Trey Howland22:29.8Jackson Northwest65.7
11Nick Spicer22:30.6Clinton65.5
9Collin Mullaly22:46.2Hillsdale60.3
10Nickolas DeVitto22:46.4Clinton60.2
9Elijah Jones22:47.2Clinton59.9
11Aiden Weaver22:50.9Clinton58.7
11Brendan Ratell22:54.8Jackson Northwest57.4
9Justin Gale23:38.1Manchester43.0
10Clayton Thomas23:39.1Vandercook Lake42.6
9Maysun Strachan23:53.7Jonesville37.8
12Devon Beller24:35.1Sturgis24.0
9Drake Bosse25:14.5Onsted10.8

GradeNameTimeTeamRating
10Emmry Ross17:47.6Onsted158.1
11Jayden Harberts17:55.4Macomb Dakota155.5
11Madison Osterberg18:06.5Jackson Lumen Christi151.8
12Madison Clor18:15.6Romeo148.8
12Emily Cooper18:17.3Ann Arbor Pioneer148.2
10Violet Hrabovsky18:34.9Romeo142.4
10Cassie Garcia18:38.1Northville141.3
10Alena Blumberg18:40.4Dexter140.5
12Natalie Kessler18:41.8Ann Arbor Skyline140.1
12Mackenzie Wright18:42.6Howell139.8
9Emmerson Clor18:43.1Romeo139.6
11Natalie Mello18:44.9Ann Arbor Pioneer139.0
10Molly Baracco18:56.4Farmington135.2
11Lydia Bowman19:01.3Ann Arbor Pioneer133.6
12Ana Dunfee19:02.3Kalamazoo Loy Norrix133.2
12Cara Newman19:08.6Canton131.1
12Mia Rogan19:09.2Saline130.9
11Payton Scheffler19:11.9Woodhaven-Brownstown130.0
10Annabel O’Haver19:14.4Dexter129.2
10Sienna Snyder19:21.3Saline126.9
10Grace Roth19:21.6Saline126.8
11Sylvia Sanok Dufallo19:26.3Ann Arbor Pioneer125.2
11Allison Mayer19:29.8Ann Arbor Skyline124.1
12Cadence Schultz19:29.9East Kentwood124.0
9Ava Lawrence19:29.9East Kentwood124.0
10Abby Roth19:30.7Saline123.8
12Rebekah Asselin19:33.7Temperance Bedford122.8
11Katie Hume19:34.4Ann Arbor Pioneer122.5
12Elaina Rondeau19:35.8Troy122.1
12Ava Walsh19:35.8White Lake Lakeland122.1
11Faylinn Wong19:35.9Farmington122.0
11Mariah Belmont19:36.0Macomb Dakota122.0
10Mackenzie Sellenraad19:36.6Saline121.8
12Gianna-Marie Schubert19:36.8Ann Arbor Gabriel Richard121.7
12Kaylee Pesta19:38.4Tecumseh121.2
12Ava LaMilza19:38.8Macomb Dakota121.1
11Ella Christensen19:42.1Northville120.0
12Kara Terakedis19:42.7Onsted119.8
9Sophia Nunnery19:45.2Hartland118.9
10Corynn Gady19:45.3Saline118.9
10Jaidyn Smith19:47.4Leslie118.2
9Natalia Guaresimo19:47.5Romeo118.2
11Alexis Ball19:49.6Traverse City Central117.5
9MollyKate Coates19:49.9Northville117.4
12Allie Koch19:50.8Manchester117.1
10Ava Alicandro19:51.0White Lake Lakeland117.0
9Macy Fazekas19:51.8Jackson Lumen Christi116.7
9Lilly Schlack19:53.3Saline116.2
12Charlotte Gullion19:53.8Troy116.1
12Leah White19:54.4Ann Arbor Skyline115.9
11Ella Kirkwood19:55.2Traverse City Central115.6
12Kathleen Venhuizen19:58.0Traverse City Central114.7
9Berkley Holtz20:00.3Sturgis113.9
12Anna Gdowski20:00.4Northville113.9
9Hana Boggess20:00.5Ann Arbor Pioneer113.8
10Ellie Schenkelberger20:01.1Traverse City Central113.6
12Alexandra Cabaj20:01.9Hartland113.4
9Elliana Neuer20:04.1Hartland112.6
10Catherine Steele20:04.7Farmington112.4
11Gracie Youngblood20:07.3Romeo111.6
12Chesney Wilke20:07.5Tecumseh111.5
12Cassandra Gallagher20:08.0Sault Ste. Marie111.3
9Lila Mae Frank20:08.2Battle Creek Lakeview111.3
11Kate Varitek20:09.1Dexter111.0
10Rosie Gregory20:09.5Northville110.8
10Chloe Stalhood20:09.7Hillsdale110.8
11Lily Hetzel20:10.7Salem110.4
12Mia Cholewa20:12.4Howell109.9
12Olivia Lincourt20:12.9Farmington109.7
11Batoul Hamka20:13.2Dearborn109.6
12Megan Roberts20:14.7Hillsdale Academy109.1
11Nora Schley20:16.2Canton108.6
9Rowan Allen20:16.4Mendon108.5
9Ruth Brownlee20:16.6Hillsdale Academy108.5
12Reesah Link20:19.3Kalamazoo Loy Norrix107.6
10Madison Rogan20:20.0Saline107.3
11Lily Connors20:20.8Northville107.1
12Lydia Cocciolone20:21.3Ann Arbor Skyline106.9
9Hailey Creisher20:22.6Leslie106.5
10Addison Bruckman20:23.9Dexter106.0
9Chloe Khon20:25.0Jackson Northwest105.7
12Lindsay Harvey20:25.6Macomb Dakota105.5
11Bailey Burt20:27.0Saline105.0
11Alyssa Hinton20:29.7Battle Creek Lakeview104.1
9Lidia Clancy20:29.9Macomb Dakota104.0
12Sarah Halliday20:30.2Howell103.9
10Erin Lubahn20:32.2Leslie103.3
12Maisie Konwinski20:33.0Troy103.0
9Jillian Hayes20:34.5Saline102.5
11Talia Sachs20:34.9Birmingham Seaholm102.4
10Rosa Brody20:35.2Canton102.3
10Madie Miller20:35.8Troy102.1
12Mya Orner20:39.3Temperance Bedford100.9
12Reaghan Babrick20:39.4Kalamazoo Loy Norrix100.9
12Ella Koons20:39.6Howell100.8
11Anna Schroeder20:40.3Royal Oak100.6
11Erin Stuk20:40.9Ann Arbor Gabriel Richard100.4
12Gabrielle Osterberg20:42.2Jackson Lumen Christi99.9
11Amelia Isackson20:43.0Kalamazoo Loy Norrix99.7
12Lola Reimers20:43.8Traverse City Central99.4
12Sanya Ahmed20:44.3Canton99.2
12Allison Nutt20:46.5Ann Arbor Pioneer98.5
11Samantha Coots20:46.7Clinton98.4
11Sarah Barnett20:47.0Royal Oak98.3
10Olivia Purdy20:48.0Romeo98.0
10Natalie Joiner20:49.0White Lake Lakeland97.7
10Olivia Shaieb20:49.8Dexter97.4
11Maura Lichiello20:51.4Howell96.9
9Maddy Rivera20:52.2Northville96.6
11Cylee Elkins20:53.2Clinton96.3
10Alena Tiernan20:54.0White Lake Lakeland96.0
10Layla Lopez20:56.0Jackson Lumen Christi95.3
9Adele Bush20:56.4Birmingham Seaholm95.2
11Taylor Steinagel20:59.8Canton94.1
12Paige Ratliff21:00.4Battle Creek Lakeview93.9
11Sydney Fazekas21:00.6Jackson Lumen Christi93.8
10Ella Walton21:03.4Hillsdale Academy92.9
11Izabella Loubser21:05.1Temperance Bedford92.3
12Makenna Kern21:05.3Hartland92.2
12Isabelle Fairless21:06.2Royal Oak91.9
12Mia McDonald21:06.4White Lake Lakeland91.9
9Sammi Gale21:07.7Northville91.4
10Madison Morris21:08.2Tecumseh91.3
10Irene Oh21:10.8Troy90.4
12Elise Bodary21:10.9Ann Arbor Gabriel Richard90.4
12Jasmine Beltrame21:11.7Northville90.1
11Allison Giroux21:14.1Troy89.3
10Zoe Howard21:15.1Hartland89.0
11Nancy Gage21:15.2Saline88.9
10Allie England21:19.2Onsted87.6
12Emma Bushroe21:19.5Temperance Bedford87.5
12Antonia Bruckman21:19.7Dexter87.4
11Trinity Mann21:20.0White Lake Lakeland87.3
9Sydney Bir21:20.5Sturgis87.2
10Kylie Pung21:23.0Howell86.3
12Justice Prins21:23.2Parma Western86.3
10Sophia McKenna21:23.6Hartland86.1
10Thia Tello21:25.8Jackson Lumen Christi85.4
9Hannah Bougher21:26.4Dexter85.2
10Yana Chamiso21:26.7Canton85.1
10Marina Walz21:28.5Parma Western84.5
12Allyson Robarge21:29.1Onsted84.3
11Ava Viegelahn21:29.6Grass Lake84.1
10Grace Oberski21:30.3Saline83.9
9Annabelle Beloiu21:30.4Northville83.9
9Tessa Hatt21:33.1Sturgis83.0
11Celia Begosso21:34.1Ann Arbor Skyline82.6
9Alexandra Beltrame21:35.0Northville82.3
12Whitney Wilkinson21:35.5Hillsdale Academy82.2
11Maia Conway21:35.6Royal Oak82.1
9Juliana Bohlen21:35.8Northville82.1
12Emily Stevenson21:36.6Tecumseh81.8
12Olivianna Watkins21:37.6Hanover-Horton81.5
12Jane Barnett21:37.7Royal Oak81.4
10Katie Macey21:37.9Royal Oak81.4
11Allison Bowles21:38.1Clinton81.3
12Emma Abbott21:38.9Tecumseh81.0
10Jessica Warren21:40.3Tecumseh80.6
11Aubrey Burke21:40.5Salem80.5
12Erika Quibell21:43.3East Kentwood79.6
11Tori Trumper21:44.8Macomb Dakota79.1
10Macy Daniels21:44.9Kalamazoo Loy Norrix79.0
9Raegan Brosamer21:45.0Onsted79.0
9Savannah Arnett21:46.2Leslie78.6
9Abby Brownlee21:46.3Hillsdale Academy78.6
12Sarah Anastasiadis21:48.3Jackson Lumen Christi77.9
11Jacquelynne Napthen21:50.4Salem77.2
11Ella Caplea21:52.5Ann Arbor Gabriel Richard76.5
12Sydney Dec21:53.3Temperance Bedford76.2
11Anoush Smith21:55.0Birmingham Seaholm75.7
12Annalisa DeGuzman21:55.6Ann Arbor Skyline75.5
11Mackenzie Hendry21:55.9White Lake Lakeland75.4
10Grace Bullock21:56.6Grass Lake75.1
10Kayley Cleary21:57.3Howell74.9
11Madelyn Norman21:59.8Napoleon74.1
11Callan Kaffl22:00.4Northville73.9
9Katie Million22:02.9Grass Lake73.0
9Chloe Wanner22:03.5Temperance Bedford72.8
9Abigail Spencer22:04.5Farmington72.5
10Allison DiTullio22:04.7Salem72.4
9Claire Cousineau22:06.6Tecumseh71.8
12Isabella Berry22:07.5Hanover-Horton71.5
11Madeleine Fleury22:08.9Ann Arbor Gabriel Richard71.0
12Clare Miller22:10.5Ann Arbor Gabriel Richard70.5
10Alayna Godfrey22:11.4East Kentwood70.2
10Ava Quasney22:13.6Northville69.5
10Alexa Daniels22:15.7Ann Arbor Gabriel Richard68.8
12Alexa Thurman22:16.4Battle Creek Lakeview68.5
11Mira Renaldi22:20.5Canton67.2
11Ella DeBruyn22:20.9Traverse City Central67.0
10Raelyn McLaughlin22:21.8Woodhaven-Brownstown66.7
12Ebise Tarekegn22:22.0East Kentwood66.7
10Mylene Pham22:22.8Macomb Dakota66.4
9Grace Hopkins22:24.5Ann Arbor Skyline65.8
10Evelyn Calow22:25.5Battle Creek Lakeview65.5
10Abbie Terry22:26.0East Kentwood65.3
9Claire VanDis22:27.1Battle Creek Lakeview65.0
9Taylor Hoppe22:27.3Grass Lake64.9
11Maddi McCullough22:27.6Romeo64.8
11Mallory Messer22:29.0Salem64.3
11Calla Armstrong22:30.5Sault Ste. Marie63.8
10Madison Sallows22:31.5Hillsdale Academy63.5
10Lauren McLain22:33.5Napoleon62.8
9Elliana Perugi22:34.1Woodhaven-Brownstown62.6
9Joslyn Bechtol22:34.6Woodhaven-Brownstown62.5
9JayLee Chapman22:36.0Stockbridge62.0
10Selina Lin22:37.4Birmingham Seaholm61.5
9Nina Denenberg22:39.0Birmingham Seaholm61.0
9Lucy VanHaerents22:40.1Royal Oak60.6
9Kennedy Bugbee22:40.7Hanover-Horton60.4
11Alexis Flint22:44.8Hanover-Horton59.1
11Lydia Bennett22:46.9Manchester58.4
10Kathleen Conaway22:47.2Traverse City Central58.3
10Kennedy Childress22:47.4Monroe Milers58.2
11Grace Schook22:47.9Dearborn58.0
12Kelsey Knape22:48.3Tecumseh57.9
12Hope Wilkes22:48.8Brooklyn Columbia Central57.7
11Ainsley Giorio22:48.8Troy57.7
9Grace Brown22:52.1Jackson56.6
11Dayna Szabo22:55.5Sault Ste. Marie55.5
12Ella Bivens22:57.3Parma Western54.9
12Nicole Majors22:58.8Hartland54.4
10Anna Ransom23:02.5Stockbridge53.2
12Katelyn Dec23:03.8Temperance Bedford52.7
12Stacia Hedrich23:07.2Jackson Northwest51.6
12Chloe Brookes23:08.1Birmingham Seaholm51.3
9Ellie Marsh23:08.3Manchester51.2
11Alexa Burgess23:10.8Napoleon50.4
10Zainab Raza23:13.0Dearborn49.7
12Liz Hill23:18.3Onsted47.9
10Isabelle Kriebel23:19.2Woodhaven-Brownstown47.6
9Julia Richardson23:19.5Birmingham Seaholm47.5
11Jalynn Schmelter23:19.9Leslie47.4
10Jordyn Taylor23:21.0Onsted47.0
12Ella Adalbert23:21.5Kalamazoo Loy Norrix46.8
10Ava Schnell23:22.9Hanover-Horton46.4
10Sarah King23:24.1Clinton46.0
9Kenzie Eicher23:25.3Sturgis45.6
10Zoey Sierer23:25.9Clinton45.4
12Maya Hitchingham23:27.2Jackson44.9
10Ava Vaccaro23:30.0Stockbridge44.0
12Audrey Allard23:31.3Leslie43.6
12Emma Kerschbaum23:32.4Battle Creek Lakeview43.2
11Frances Walewski23:32.9Salem43.0
11Naidelin Luna-Bucio23:33.1Sturgis43.0
12Lainey Reynolds23:33.9Jackson Northwest42.7
11Alexa Richardson23:41.5Birmingham Seaholm40.2
12Halle Brooks23:47.0Sturgis38.3
11Aileen Bachrans23:51.3Ann Arbor Skyline36.9
10Isabella Stoetzel23:51.4Parma Western36.9
11Iris Millies23:53.4Hillsdale Academy36.2
12Madhumitha Rajaprakash23:53.8Farmington36.1
12Marissa Benn23:57.5Napoleon34.8
9Stephanie Jones24:02.8Sault Ste. Marie33.1
10Anna Miedema24:04.7Kalamazoo Loy Norrix32.4
11Luna Canziani24:05.1Parma Western32.3
10Cooper Roberts24:06.4Woodhaven-Brownstown31.9
11Adalya Ghnaim24:06.6Woodhaven-Brownstown31.8
10Grace Johnson-Sears24:20.0Birmingham Seaholm27.3
11Alexandria Mason24:23.8Ann Arbor Skyline26.1
10Rebekah Gram24:27.5Monroe Milers24.8
10Madeline Jenks24:27.8Grass Lake24.7
11Serena O’Brien24:34.8Ann Arbor Skyline22.4
9Makenzy Lindemann24:37.7Napoleon21.4
10Lorelai Malinowski24:42.7Grass Lake19.8
12Elizabeth Martin24:43.6Sault Ste. Marie19.5
11Morgan Baker24:50.4Jonesville17.2
9Maria Siciliano24:50.8Napoleon17.1
11Sophie Cloutier24:55.0Birmingham Seaholm15.7
10Donna Chamas24:57.5Dearborn14.8
9Eleanor Carey25:01.4Sault Ste. Marie13.5
12Julia Mei25:01.6Ann Arbor Skyline13.5
11Candice Guibert de Bruet25:04.6Birmingham Seaholm12.5
11Natalie Coleman25:09.6Parma Western10.8
11Elle Nowak25:14.2Tecumseh9.3
11Zoey Udzik25:21.6Jonesville6.8
12Kylie Jones25:22.2Sault Ste. Marie6.6
10Eliana Johnson25:26.3Stockbridge5.2
9Sarah Rankin25:26.7Grass Lake5.1
9Madelynn Bennett25:29.2Manchester4.3
11Maddy McPherson25:30.6Jackson Northwest3.8
10Kaylee Draper25:38.0Sturgis1.3
11Alexandra Ream25:39.9Leslie0.7
11Emma Shankland25:40.0Clinton0.7
9Anna Wagner25:42.1Monroe Milers0.0

Leave a Reply

Fill in your details below or click an icon to log in:

WordPress.com Logo

You are commenting using your WordPress.com account. Log Out /  Change )

Twitter picture

You are commenting using your Twitter account. Log Out /  Change )

Facebook photo

You are commenting using your Facebook account. Log Out /  Change )

Connecting to %s